Regional Weather Roundup
Issued by NWS Little Rock, AR

Home | Current Version | Previous Version | Text Only | Print | Product List | Glossary Off
Versions: 1 2 3 4 5 6 7 8 9 10 11 12 13 14 15 16 17 18 19 20 21 22 23 24 25 26 27 28 29 30 31 32 33 34 35 36 37 38 39 40 41 42 43 44 45 46 47 48 49 50

000
ASUS44 KLZK 012105
RWRLZK

WEATHER ROUNDUP FOR ARKANSAS
NATIONAL WEATHER SERVICE LITTLE ROCK AR
400 PM CDT MON JUN 01 2015

NOTE: "FAIR" INDICATES FEW OR NO CLOUDS BELOW 12,000 FEET WITH NO
SIGNIFICANT WEATHER AND/OR OBSTRUCTIONS TO VISIBILITY.

ARZ001-003-010-029-012200-
NORTHWEST ARKANSAS

CITY           SKY/WX    TMP DP  RH WIND       PRES   REMARKS
FAYETTEVILLE   MOSUNNY   75  61  61 W9        30.08F
FORT SMITH     MOSUNNY   81  58  45 SW5       30.04F
HARRISON       CLOUDY    70  59  68 N3        30.11S
BENTONVILLE    PTSUNNY   75  55  50 CALM      30.10F
ROGERS         MOSUNNY   75  59  57 NW5       30.10F
SILOAM SPGS    MOSUNNY   77  57  50 CALM      30.10S
HIGHFILL       MOSUNNY   76  58  53 VRB3      30.09F
SPRINGDALE     PTSUNNY   75  59  57 CALM      30.11F
$$

ARZ004-005-016-012200-
NORTH CENTRAL ARKANSAS

CITY           SKY/WX    TMP DP  RH WIND       PRES   REMARKS
BATESVILLE     CLOUDY    70  57  64 CALM      30.10F
FLIPPIN        CLOUDY    70  57  64 NE3       30.09F
MTN HOME       CLOUDY    70  58  65 VRB3      30.10F
$$

ARZ040-041-012200-
WEST CENTRAL ARKANSAS

CITY           SKY/WX    TMP DP  RH WIND       PRES   REMARKS
MENA           MOSUNNY   82  61  47 W6        30.06F
MOUNT IDA      MOSUNNY   79  64  60 SE9       30.04F
$$

ARZ009-017-025-026-028-012200-
NORTHEAST ARKANSAS

CITY           SKY/WX    TMP DP  RH WIND       PRES   REMARKS
CORNING          N/A     68  59  73 NW5       30.10F HAZE
JONESBORO      CLOUDY    69  59  70 NW5       30.09F
NEWPORT        CLOUDY    71  59  66 CALM      30.11F
WALNUT RIDGE   PTSUNNY   68  57  68 N6        30.11S
BLYTHEVILLE    CLOUDY    70  61  73 N7        30.09S
NW BLYTHEVILLE CLOUDY    70  59  68 N9        30.09
$$

ARZ022-023-033-042-044-012200-
CENTRAL ARKANSAS

CITY           SKY/WX    TMP DP  RH WIND       PRES   REMARKS
LITTLE ROCK    PTSUNNY   75  60  59 E8        30.08F
N LITTLE ROCK  PTSUNNY   74  65  74 SE5       30.08F
JACKSONVILLE   MOSUNNY   74  63  67 E5        30.08F HAZE
SEARCY         CLOUDY    72  62  71 VRB7      30.10F
HOT SPRINGS    MOSUNNY   78  62  57 MISG      30.07F
RUSSELLVILLE   SUNNY     77  62  59 VRB5      30.06F
CLINTON        PTSUNNY   72  63  73 E3        30.10F
$$

ARZ036-012200-
EAST ARKANSAS

CITY           SKY/WX    TMP DP  RH WIND       PRES   REMARKS
WEST MEMPHIS   CLOUDY    71  62  73 N6        30.08S
$$

ARZ050-053-066-070-073-012200-
SOUTHWEST ARKANSAS

CITY           SKY/WX    TMP DP  RH WIND       PRES   REMARKS
ARKADELPHIA    FAIR      80  65  60 CALM      30.06F
CAMDEN         MOSUNNY   81  59  47 CALM      30.06F
TEXARKANA      MOSUNNY   78  64  61 NE6       30.06F
EL DORADO      MOSUNNY   76  64  66 VRB7      30.06F
DE QUEEN       SUNNY     78  64  61 S7        30.04F
$$

ARZ056-057-069-012200-
SOUTHEAST ARKANSAS

CITY           SKY/WX    TMP DP  RH WIND       PRES   REMARKS
PINE BLUFF     MOSUNNY   76  63  64 VRB3      30.08F
STUTTGART      CLOUDY    73  61  64 MISG      30.09F
MONTICELLO     PTSUNNY   78  65  63 NE8       30.06F

$$




USA.gov is the U.S. government's official web portal to all federal, state and local government web resources and services.